Regional Weather Roundup
Issued by NWS Goodland, KS

Home | Current Version | Previous Version | Text Only | Print | Product List | Glossary Off
Versions: 1 2 3 4 5 6 7 8 9 10 11 12 13 14 15 16 17 18 19 20 21 22 23 24 25 26 27 28 29 30 31 32 33 34 35 36 37 38 39 40 41 42 43 44 45 46 47 48 49 50

000
ASUS43 KGLD 271759
RWRGLD

GOODLAND FORECAST AREA HOURLY WEATHER ROUNDUP
NATIONAL WEATHER SERVICE GOODLAND KS
1200 PM MDT THU AUG 27 2015

...OFFICIAL OBSERVATIONS...

CITY           SKY/WX    TMP DP  RH WIND       PRES   REMARKS
GOODLAND KS    MOSUNNY   89  51  27 NW22G28   29.97F
HILL CITY KS   CLOUDY    95  55  26 SW18G26   29.88F
IMPERIAL NEB   SUNNY     88  60  38 N12       29.92S
MCCOOK NEB     PTSUNNY   91  53  27 S9        29.87F
AKRON CO       MOSUNNY   88  46  23 NW24G31   30.06F
BURLINGTON CO  MOSUNNY   87  48  25 NW18G25   30.04F
LIMON CO       MOSUNNY   80  50  34 NW12      30.15F
$$

...UNOFFICIAL OBSERVATIONS...

CITY           SKY/WX    TMP DP  RH WIND       PRES   REMARKS
COLBY KS       SUNNY     91  55  29 SW12G17   29.95S
GOVE KS          N/A     93  32  11 MISG        N/A
LENORA KS        N/A     91  32  12 MISG        N/A
NORTON KS      SUNNY     88  54  31 S7        29.87F
SHARON SPRINGS   N/A     89  56  32 NW13        N/A
TRENTON NEB      N/A     85  32  15 W6          N/A
KIT CARSON CO    N/A     88  52  28 MISG        N/A
YUMA CO          N/A     87  52  29 N20G28      N/A
$$



USA.gov is the U.S. government's official web portal to all federal, state and local government web resources and services.